Location: Bouchavesnes-Bergen
(49.9859°N, 2.9203°E)
Time: 11:38:39
(UTC+00:00)

Spot 4 Rocket - Pass Details

Date: 09 March 2021
Orbit: 777 x 780 km, 98.7° (Epoch: 13 April)

Event Time Altitude Azimuth Distance (km) Brightness Sun altitude
Rises 03:38:24 0° 13° (NNE) 3,274 7.8 -25.3°
Reaches altitude 10° 03:40:44 10° 12° (NNE) 2,342 6.9 -25.0°
Maximum altitude 03:45:53 76° 288° (WNW) 809 3.9 -24.2°
Enters shadow 03:46:30 66° 234° (SW) 850 3.9 -24.2°
